[[{"header":{"parameterUnit":"m.s-1","parameterCategory":1,"la1":30.2991,"la2":30.254,"lo1":-89.0895,"lo2":-89.0444,"dy":0.0017,"dx":0.0017,"nx":28,"ny":28,"refTime":"2025-01-16T09:00:00:Z","depth":0,"parameterNumber":2,"parameterNumberName":"U-component_of_WINDS"},"data":[0,0,0,0,0,0,0,0,0,0,0,0,0,0,0,0,0,0,0,0,0,0,0,0,0,0,0,0,0,0,0,0,0,0,0,0,0,0,0,0,0,0,0,0,0,0,0,0,0,0,0,0,0,0,0,0,0,0,-0.3955,-0.3956,0,-0.4005,-0.4006,-0.4006,-0.3987,-0.3986,-0.3985,-0.3984,-0.4037,-0.404,-0.4042,0,0,0,0,0,0,0,0,0,0,0,0,0,-0.3847,-0.3849,-0.3955,-0.3956,-0.3957,-0.4005,-0.4006,-0.4006,-0.3987,-0.3986,-0.3984,-0.3983,-0.4037,-0.404,-0.4043,0,0,0,0,0,0,0,0,0,0,0,0,0,-0.3895,-0.385,-0.3955,-0.3953,-0.3953,-0.4005,-0.4006,-0.4007,-0.3987,-0.3986,-0.3984,-0.3982,-0.4036,-0.4039,-0.4043,-0.4101,0,0,-0.4054,-0.4056,0,0,0,0,0,0,0,0,-0.3892,-0.3899,-0.3952,-0.3953,-0.3953,-0.3988,-0.3987,-0.4038,-0.3988,-0.3974,-0.3983,-0.3981,-0.4023,-0.4027,-0.4041,-0.4104,-0.4106,-0.4055,-0.4057,-0.4059,-0.406,0,0,0,0,0,0,0,-0.3889,-0.3897,-0.3975,-0.3953,-0.3954,-0.395,-0.3955,-0.3997,-0.4008,-0.3975,-0.3974,-0.398,-0.4022,-0.4037,-0.4042,-0.4107,-0.4055,-0.4058,-0.406,-0.4062,-0.4222,-0.4224,0,0,0,0,0,0,-0.3885,-0.3894,-0.3974,-0.3977,-0.3918,-0.3954,-0.3959,-0.3979,-0.4007,-0.401,-0.3982,-0.3979,-0.4031,-0.4037,-0.4043,-0.4115,-0.4059,-0.4062,-0.4064,-0.422,-0.4222,-0.4225,0,0,0,0,0,0,-0.3883,-0.3892,-0.3971,-0.3935,-0.3945,-0.3957,-0.3979,-0.3981,-0.3995,-0.4012,-0.4014,-0.3994,-0.403,-0.4038,-0.4087,-0.4117,-0.4064,-0.4067,-0.4218,-0.4221,-0.4223,-0.4257,0,0,0,0,0,0,-0.388,-0.3892,-0.3913,-0.3936,-0.3947,-0.4014,-0.3981,-0.3983,-0.4001,-0.3998,-0.4024,-0.4027,-0.4029,-0.4082,-0.4091,-0.4121,-0.407,-0.4215,-0.4219,-0.4223,-0.4254,-0.4261,-0.4268,0,0,0,0,0,-0.3876,-0.3921,-0.3914,-0.3924,-0.3974,-0.4015,-0.4022,-0.4023,-0.4004,-0.4026,-0.4037,-0.4026,-0.4111,-0.4087,-0.4097,-0.4129,-0.4213,-0.4218,-0.4222,-0.4251,-0.426,-0.4267,0,0,0,0,0,0,-0.3903,-0.3924,-0.3917,-0.397,-0.3991,-0.4012,-0.404,-0.4032,-0.406,-0.4056,-0.4057,-0.4063,-0.4114,-0.4126,-0.4098,-0.4187,-0.416,-0.4166,-0.4178,-0.4187,-0.4193,-0.419,-0.4073,0,0,0,0,0,-0.3914,-0.3945,-0.3962,-0.4008,-0.4019,-0.4028,-0.4046,-0.4045,-0.4067,-0.4076,-0.409,-0.4113,-0.4145,-0.4166,-0.4196,-0.4255,-0.4261,-0.4282,-0.4289,-0.4294,-0.4301,-0.4334,-0.4344,-0.4239,-0.4239,-0.4239,0,0,-0.394,-0.3955,-0.3975,-0.4014,-0.403,-0.4063,-0.4035,-0.4071,-0.4096,-0.4082,-0.4129,-0.414,-0.4166,-0.422,-0.4245,-0.4232,-0.4331,-0.43,-0.4304,-0.4308,-0.434,-0.435,-0.4359,-0.4242,-0.4242,-0.4241,0,0,-0.4003,-0.4017,-0.4057,-0.4074,-0.4098,-0.4104,-0.4113,-0.4135,-0.4142,-0.419,-0.418,-0.421,-0.4264,-0.4284,-0.43,-0.4371,-0.4363,-0.4381,-0.4418,-0.4451,-0.4459,-0.4466,-0.4493,-0.4503,-0.4387,-0.4387,-0.4387,0,-0.4032,-0.408,-0.4079,-0.4116,-0.4134,-0.4121,-0.4163,-0.4179,-0.4213,-0.4226,-0.4211,-0.428,-0.4296,-0.4355,-0.4373,-0.4386,-0.4399,-0.4379,-0.4457,-0.4465,-0.4472,-0.4498,-0.4508,-0.4389,-0.4389,-0.4389,-0.4389,0,-0.4115,-0.4149,-0.4179,-0.4211,-0.4232,-0.4271,-0.4277,-0.4299,-0.4297,-0.4304,-0.4354,-0.4372,-0.4407,-0.442,-0.4418,-0.448,-0.4472,-0.4457,-0.4429,-0.4484,-0.4509,-0.4518,-0.4392,-0.4392,-0.4391,-0.439,0,0,-0.4198,-0.4228,-0.4239,-0.4254,-0.428,-0.4307,-0.4346,-0.4379,-0.4399,-0.4422,-0.4457,-0.4503,-0.449,-0.4509,-0.4509,-0.4537,-0.4595,-0.4519,-0.452,-0.4534,-0.4666,-0.4679,-0.469,-0.4588,-0.459,-0.4592,-0.4665,0,-0.4264,-0.4332,-0.4332,-0.4395,-0.4428,-0.4416,-0.445,-0.4471,-0.4479,-0.4509,-0.4518,-0.4552,-0.4531,-0.4542,-0.457,-0.4582,-0.4621,-0.4576,-0.4622,-0.4624,-0.4618,-0.4702,-0.4715,-0.4783,-0.4674,-0.4676,-0.4677,0,-0.4351,-0.4377,-0.4443,-0.4466,-0.4479,-0.451,-0.4541,-0.4569,-0.4592,-0.4596,-0.4618,-0.4614,-0.4655,-0.4625,-0.4683,-0.4652,-0.4671,-0.468,-0.4682,-0.4688,-0.4655,-0.4712,-0.4805,-0.4816,-0.4691,-0.469,-0.4689,0,-0.4407,-0.4458,-0.4505,-0.4518,-0.4544,-0.4567,-0.4579,-0.4601,-0.4621,-0.4648,-0.4661,-0.4693,-0.4711,-0.4737,-0.4742,-0.4719,-0.48,-0.477,-0.4807,-0.4807,-0.4826,-0.4825,-0.4924,-0.4835,-0.4834,-0.4834,-0.4834,0,-0.4483,-0.4524,-0.453,-0.4559,-0.4606,-0.4606,-0.4653,-0.4663,-0.4683,-0.4715,-0.4706,-0.4736,-0.474,-0.4772,-0.4776,-0.4824,-0.4832,-0.4838,-0.4839,-0.484,-0.4839,-0.4853,-0.4849,-0.4837,-0.4836,-0.4836,-0.4835,0,-0.4553,-0.4559,-0.4609,-0.463,-0.4637,-0.467,-0.4689,-0.4717,-0.4724,-0.4765,-0.4774,-0.4786,-0.4823,-0.483,-0.4874,-0.4877,-0.4935,-0.493,-0.4927,-0.4927,-0.4964,-0.4961,-0.5077,-0.5093,-0.4991,-0.4992,-0.4993,0,-0.4602,-0.4634,-0.4658,-0.4678,-0.4692,-0.4724,-0.4745,-0.4746,-0.4768,-0.4798,-0.4823,-0.4859,-0.4888,-0.4948,-0.4961,-0.4995,-0.4992,-0.503,-0.4997,-0.4997,-0.4995,-0.4994,-0.4998,-0.5037,-0.5038,-0.5039,-0.504,0,-0.4689,-0.469,-0.4719,-0.475,-0.4775,-0.4799,-0.4822,-0.484,-0.4845,-0.487,-0.4907,-0.493,-0.4974,-0.5011,-0.5044,-0.5058,-0.5051,-0.505,-0.5061,-0.5063,-0.506,-0.5064,-0.4947,-0.5048,-0.5047,-0.5046,-0.5046,-0.5046,-0.4751,-0.4779,-0.4801,-0.4835,-0.4852,-0.4874,-0.4902,-0.4913,-0.4943,-0.4979,-0.4978,-0.502,-0.5044,-0.5088,-0.5104,-0.5137,-0.5125,-0.514,-0.5144,-0.5148,-0.5153,-0.5053,-0.5143,-0.5143,-0.5143,-0.5143,-0.5143,0,-0.4839,-0.4852,-0.4883,-0.4916,-0.4942,-0.4931,-0.4957,-0.498,-0.5017,-0.5039,-0.5067,-0.5111,-0.5146,-0.5162,-0.5197,-0.5221,-0.5219,-0.523,-0.523,-0.5234,-0.516,-0.5149,-0.5232,-0.5232,-0.5232,-0.5232,-0.5232,-0.5232,-0.4888,-0.4936,-0.494,-0.4996,-0.5009,-0.5049,-0.5065,-0.5086,-0.5104,-0.5153,-0.5182,-0.5191,-0.5212,-0.5248,-0.5281,-0.5285,-0.5299,-0.5313,-0.5315,-0.5247,-0.5238,-0.523,-0.5219,-0.5315,-0.5316,-0.5386,-0.5386,-0.5387]},{"header":{"parameterUnit":"m.s-1","parameterCategory":1,"la1":30.2991,"la2":30.254,"lo1":-89.0895,"lo2":-89.0444,"dy":0.0017,"dx":0.0017,"nx":28,"ny":28,"refTime":"2025-01-16T09:00:00:Z","depth":0,"parameterNumber":3,"parameterNumberName":"V-component_of_WINDS"},"data":[0,0,0,0,0,0,0,0,0,0,0,0,0,0,0,0,0,0,0,0,0,0,0,0,0,0,0,0,0,0,0,0,0,0,0,0,0,0,0,0,0,0,0,0,0,0,0,0,0,0,0,0,0,0,0,0,0,0,0.6301,0.6301,0,0.6272,0.6272,0.6271,0.6253,0.6253,0.6253,0.6253,0.6221,0.622,0.622,0,0,0,0,0,0,0,0,0,0,0,0,0,0.634,0.634,0.6301,0.6301,0.6301,0.6272,0.6272,0.6271,0.6253,0.6253,0.6253,0.6253,0.6221,0.622,0.6219,0,0,0,0,0,0,0,0,0,0,0,0,0,0.6318,0.6339,0.6302,0.6288,0.6287,0.6272,0.6272,0.6271,0.6253,0.6253,0.6253,0.6253,0.6222,0.6221,0.6219,0.6215,0,0,0.6216,0.6215,0,0,0,0,0,0,0,0,0.632,0.6317,0.6291,0.6289,0.6288,0.6266,0.6274,0.6252,0.6253,0.6266,0.6253,0.6253,0.6236,0.6234,0.6228,0.6213,0.6212,0.6216,0.6215,0.6215,0.6214,0,0,0,0,0,0,0,0.6321,0.6318,0.629,0.629,0.6288,0.6283,0.628,0.6269,0.6252,0.6265,0.6264,0.626,0.6235,0.623,0.6228,0.6212,0.6216,0.6215,0.6214,0.6214,0.6191,0.6191,0,0,0,0,0,0,0.6325,0.6319,0.6291,0.6289,0.6304,0.6283,0.6279,0.6273,0.6252,0.6249,0.6261,0.626,0.6232,0.6229,0.6226,0.622,0.6215,0.6213,0.6213,0.6191,0.6191,0.6191,0,0,0,0,0,0,0.6326,0.6323,0.6292,0.6304,0.6299,0.6282,0.6276,0.6273,0.6267,0.6249,0.6246,0.6258,0.6231,0.6228,0.6218,0.6218,0.6213,0.6212,0.6191,0.6191,0.6191,0.6206,0,0,0,0,0,0,0.6327,0.6323,0.6322,0.6304,0.6299,0.6285,0.6276,0.6272,0.6265,0.6264,0.6246,0.6243,0.6231,0.622,0.6217,0.6217,0.6211,0.6191,0.6191,0.6191,0.6206,0.6207,0.6208,0,0,0,0,0,0.6329,0.6327,0.6322,0.6318,0.6297,0.6285,0.6282,0.6269,0.6266,0.6264,0.6252,0.6243,0.6219,0.6219,0.6215,0.6215,0.6191,0.6191,0.6191,0.6205,0.6207,0.6208,0,0,0,0,0,0,0.6344,0.6324,0.6318,0.6311,0.63,0.6282,0.6279,0.6271,0.626,0.6259,0.6243,0.6239,0.6231,0.6222,0.6222,0.6209,0.6204,0.6203,0.6216,0.6217,0.6218,0.622,0.621,0,0,0,0,0,0.6347,0.6339,0.6322,0.6317,0.6312,0.6296,0.6291,0.6282,0.6269,0.6264,0.6252,0.624,0.6229,0.6222,0.6212,0.6204,0.62,0.6202,0.6203,0.6204,0.6204,0.6199,0.62,0.6192,0.6192,0.6192,0,0,0.6352,0.634,0.6337,0.632,0.631,0.6302,0.6293,0.6284,0.6278,0.6263,0.6253,0.6243,0.6228,0.622,0.6215,0.6212,0.6205,0.6205,0.6206,0.6205,0.6199,0.62,0.6201,0.6192,0.6192,0.6192,0,0,0.6358,0.6348,0.6343,0.6334,0.632,0.6309,0.6308,0.6291,0.6284,0.6274,0.6263,0.6254,0.6237,0.6227,0.6219,0.6221,0.6212,0.6218,0.6224,0.6219,0.622,0.622,0.6221,0.6221,0.6218,0.6218,0.6218,0,0.6366,0.6354,0.6341,0.6334,0.6327,0.6313,0.6308,0.6299,0.6282,0.6277,0.6273,0.6251,0.624,0.6229,0.6229,0.6223,0.6221,0.622,0.6221,0.6221,0.6222,0.6222,0.6222,0.6218,0.6218,0.6218,0.6218,0,0.6365,0.6357,0.6354,0.6339,0.6331,0.6325,0.631,0.6304,0.6296,0.6286,0.6275,0.6262,0.6248,0.6245,0.6236,0.6232,0.623,0.6224,0.6218,0.6223,0.6223,0.6223,0.622,0.6219,0.6219,0.6219,0,0,0.638,0.6358,0.6357,0.635,0.6333,0.6326,0.6318,0.6305,0.63,0.6289,0.6282,0.6267,0.6261,0.6253,0.6243,0.6239,0.6241,0.6233,0.6233,0.6235,0.6235,0.624,0.624,0.6235,0.6235,0.6235,0.6236,0,0.6383,0.637,0.6358,0.6349,0.6341,0.6328,0.6322,0.631,0.6301,0.6292,0.6281,0.6271,0.6264,0.6259,0.6254,0.6242,0.6241,0.6242,0.6228,0.6228,0.6233,0.624,0.6245,0.6247,0.6236,0.6236,0.6236,0,0.6385,0.6375,0.6365,0.6349,0.6345,0.634,0.6327,0.6319,0.6306,0.6299,0.6289,0.6279,0.627,0.6265,0.6252,0.6253,0.6247,0.624,0.6239,0.6238,0.6233,0.6239,0.6247,0.6247,0.6236,0.6236,0.6236,0,0.6397,0.6381,0.6373,0.6367,0.6348,0.6344,0.6336,0.6322,0.6315,0.6304,0.6299,0.6287,0.628,0.627,0.6256,0.6254,0.6244,0.6238,0.6238,0.6238,0.6237,0.6237,0.6244,0.6233,0.6233,0.6233,0.6233,0,0.6402,0.6397,0.6378,0.6373,0.6366,0.6352,0.6346,0.6336,0.6324,0.6317,0.6305,0.6298,0.628,0.6271,0.626,0.6251,0.6248,0.6242,0.6239,0.6243,0.6244,0.6238,0.6238,0.6233,0.6233,0.6233,0.6233,0,0.6414,0.6402,0.6392,0.6375,0.637,0.6366,0.6351,0.6346,0.6335,0.6326,0.6323,0.6306,0.6295,0.628,0.6264,0.6257,0.6249,0.6244,0.6253,0.6252,0.6252,0.6252,0.6256,0.6256,0.6245,0.6245,0.6245,0,0.6418,0.6414,0.6396,0.6391,0.6383,0.6374,0.6367,0.6353,0.6346,0.633,0.6326,0.6314,0.6304,0.6286,0.6272,0.6259,0.6254,0.6257,0.6252,0.6256,0.6254,0.6255,0.6254,0.6258,0.6258,0.6258,0.6258,0,0.6427,0.642,0.6411,0.64,0.6392,0.6382,0.6371,0.6367,0.635,0.6343,0.6332,0.6323,0.6307,0.6295,0.628,0.6271,0.6262,0.626,0.6259,0.6263,0.6268,0.6265,0.6256,0.626,0.626,0.626,0.6259,0.6259,0.6435,0.643,0.6417,0.6407,0.6398,0.6388,0.6382,0.6371,0.6361,0.6347,0.6339,0.6328,0.6314,0.6294,0.6285,0.6275,0.6272,0.6271,0.627,0.627,0.6272,0.627,0.6273,0.6272,0.6272,0.6272,0.6272,0,0.6442,0.6433,0.6424,0.641,0.6402,0.6395,0.6382,0.6376,0.6366,0.6354,0.6344,0.6331,0.6319,0.6304,0.6291,0.6286,0.6281,0.6283,0.6283,0.6281,0.6275,0.6277,0.6287,0.6287,0.6287,0.6287,0.6287,0.6287,0.6445,0.6437,0.643,0.6416,0.6407,0.6397,0.639,0.6381,0.6371,0.6357,0.6348,0.6338,0.6325,0.6311,0.6299,0.6295,0.629,0.6293,0.6288,0.6283,0.6282,0.628,0.6282,0.6293,0.6293,0.6294,0.6294,0.6295]}]]